FW2899 Weather Reports


time (UTC)temp
C
wind
direction
speed
KPH
gust
KPH
rain 1hr
cm
rain 24hr
cm
rain mn
cm
humidity
%
barometer
mb
20260504034016 13 0.0 1.6 0.00 0.00 0.00 44 1003.8
20260504033016 13 0.0 0.0 0.00 0.00 0.00 42 1003.9
20260504032016 14 0.0 0.0 0.00 0.00 0.00 40 1004.2
20260504031016 15 0.0 1.6 0.00 0.00 0.00 38 1004.3
20260504030016 15 0.0 1.6 0.00 0.00 0.00 36 1004.4
20260504025016 15 0.0 1.6 0.00 0.00 0.00 36 1004.4
20260504024036 15 0.0 0.0 0.00 0.00 0.00 36 1004.4
20260504023016 15 0.0 0.0 0.00 0.00 0.00 37 1004.4
20260504022016 15 0.0 1.6 0.00 0.00 0.00 40 1004.3
20260504021036 15 0.0 0.0 0.00 0.00 0.00 39 1004.2
20260504020036 15 0.0 0.0 0.00 0.00 0.00 38 1004.2
20260504015016 15 0.0 0.0 0.00 0.00 0.00 37 1004.0
20260504014016 16 0.0 0.0 0.00 0.00 0.00 35 1004.0
20260504013036 16 0.0 0.0 0.00 0.00 0.00 34 1004.1
20260504012036 17 0.0 0.0 0.00 0.00 0.00 33 1004.2
20260504011016 17 0.0 3.2 0.00 0.00 0.00 32 1004.0
20260504010036 17 270 1.6 3.2 0.00 0.00 0.00 32 1004.0
20260504005016 18 270 1.6 3.2 0.00 0.00 0.00 30 1004.1
20260504004016 18 270 3.2 9.7 0.00 0.00 0.00 30 1004.2
20260504003016 19 270 4.8 8.0 0.00 0.00 0.00 28 1004.2
20260504002016 19 270 4.8 9.7 0.00 0.00 0.00 29 1004.2
20260504001016 19 270 4.8 9.7 0.00 0.00 0.00 28 1004.3
20260504000016 20 270 3.2 6.4 0.00 0.00 0.00 31 1004.2
20260503235016 20 248 3.2 12.9 0.00 0.00 0.00 28 1004.3
20260503234016 20 293 3.2 6.4 0.00 0.00 0.00 30 1004.4
20260503233016 20 270 3.2 4.8 0.00 0.00 0.00 28 1004.5
20260503232016 20 270 4.8 12.9 0.00 0.00 0.00 28 1004.5
20260503231036 20 270 4.8 16.1 0.00 0.00 0.00 26 1004.6
20260503230016 20 270 3.2 6.4 0.00 0.00 0.00 28 1004.6
20260503225016 20 270 4.8 12.9 0.00 0.00 0.00 29 1004.4
20260503224036 20 270 3.2 11.3 0.00 0.00 0.00 34 1004.5
20260503223016 20 270 3.2 11.3 0.00 0.00 0.00 31 1004.5
20260503222116 20 270 3.2 6.4 0.00 0.00 0.00 33 1004.4
20260503221016 21 270 4.8 12.9 0.00 0.00 0.00 27 1004.4
20260503220036 21 270 4.8 12.9 0.00 0.00 0.00 31 1004.4
20260503215036 21 315 4.8 16.1 0.00 0.00 0.00 32 1004.4
20260503214036 21 270 3.2 9.7 0.00 0.00 0.00 33 1004.6
20260503213016 21 293 4.8 11.3 0.00 0.00 0.00 31 1004.4
20260503212016 21 270 6.4 14.5 0.00 0.00 0.00 32 1004.6
20260503211056 21 270 6.4 17.7 0.00 0.00 0.00 33 1004.6
20260503210036 21 270 6.4 12.9 0.00 0.00 0.00 33 1005.0
20260503205015 21 248 4.8 11.3 0.00 0.00 0.00 36 1005.0
20260503204016 21 315 6.4 17.7 0.00 0.00 0.00 32 1005.0
20260503203056 21 270 3.2 8.0 0.00 0.00 0.00 36 1005.2
20260503202016 21 315 6.4 14.5 0.00 0.00 0.00 32 1005.2
20260503201016 21 338 4.8 11.3 0.00 0.00 0.00 31 1005.1
20260503200015 21 270 6.4 17.7 0.00 0.00 0.00 33 1005.2
20260503195015 21 315 3.2 11.3 0.00 0.00 0.00 33 1005.3
20260503194015 21 270 4.8 12.9 0.00 0.00 0.00 32 1005.3
20260503193016 21 315 4.8 12.9 0.00 0.00 0.00 34 1005.3
20260503192035 21 293 4.8 19.3 0.00 0.00 0.00 35 1005.3
20260503191016 20 293 4.8 12.9 0.00 0.00 0.00 33 1005.4
20260503190016 20 315 6.4 14.5 0.00 0.00 0.00 33 1005.4
20260503185015 20 270 8.0 14.5 0.00 0.00 0.00 35 1005.4
20260503184016 20 270 6.4 12.9 0.00 0.00 0.00 38 1005.5
20260503183035 20 270 4.8 14.5 0.00 0.00 0.00 39 1005.6
20260503182015 20 270 6.4 11.3 0.00 0.00 0.00 39 1005.6
20260503181035 20 293 4.8 12.9 0.00 0.00 0.00 41 1005.8
20260503180015 19 338 4.8 11.3 0.00 0.00 0.00 40 1005.7
20260503175015 19 338 4.8 12.9 0.00 0.00 0.00 41 1005.7
20260503174015 19 293 6.4 17.7 0.00 0.00 0.00 42 1005.8
20260503173015 19 338 4.8 11.3 0.00 0.00 0.00 43 1005.8
20260503172015 18 270 3.2 9.7 0.00 0.00 0.00 45 1005.8
20260503171015 18 315 4.8 19.3 0.00 0.00 0.00 43 1005.6
20260503131017 12 225 4.8 12.9 0.00 0.00 0.00 51 1005.6
20260503081017 12 248 3.2 6.4 0.00 0.00 0.00 50 1008.7
20260503072017 11 203 3.2 12.9 0.00 0.00 0.00 49 1008.7
20260503071016 11 248 1.6 4.8 0.00 0.00 0.00 50 1008.7
20260503055016 12 135 1.6 9.7 0.00 0.00 0.00 48 1009.5
20260503054017 12 203 1.6 4.8 0.00 0.00 0.00 49 1009.6
20260503053017 12 180 3.2 9.7 0.00 0.00 0.00 50 1009.8
20260503052016 12 0.0 3.2 0.00 0.00 0.00 51 1009.8
20260503051016 12 0.0 3.2 0.00 0.00 0.00 51 1010.0
20260503050036 12 158 1.6 6.4 0.00 0.00 0.00 50 1010.2
20260503045016 12 158 1.6 6.4 0.00 0.00 0.00 48 1010.3
20260503044016 12 0.0 0.0 0.00 0.00 0.00 50 1010.4
20260503043016 13 0.0 1.6 0.00 0.00 0.00 48 1010.4
20260503042036 13 0.0 3.2 0.00 0.00 0.00 47 1010.6
20260503041016 13 0.0 1.6 0.00 0.00 0.00 43 1010.9
20260503040016 13 225 1.6 3.2 0.00 0.00 0.00 41 1010.8
20260503035016 14 203 3.2 6.4 0.00 0.00 0.00 42 1011.0